This is the latest recevied weather packets stored in our database for station/object KB2EAR-13. If no packets are shown the sender has not sent any weather packets the latest 10 day(s).
| Time | Temp. | Humidity | Pressure | Rain* | Wind** | Luminosity | Snow |
|---|---|---|---|---|---|---|---|
| 1788545117 | 29.44° C | 62% | 1012.9 hPa | 0 mm | - | - | - |
| 1788544817 | 29.44° C | 62% | 1012.9 hPa | 0 mm | - | - | - |
| 1788544517 | 29.44° C | 62% | 1012.8 hPa | 0 mm | - | - | - |
| 1788544217 | 29.44° C | 62% | 1012.7 hPa | 0 mm | - | - | - |
| 1788543917 | 28.89° C | 65% | 1012.7 hPa | 0 mm | - | - | - |
| 1788543617 | 29.44° C | 64% | 1012.8 hPa | 0 mm | - | - | - |
| 1788543317 | 29.44° C | 65% | 1012.8 hPa | 0 mm | - | - | - |
| 1788543017 | 29.44° C | 67% | 1012.7 hPa | 0 mm | - | - | - |
| 1788542717 | 29.44° C | 65% | 1012.7 hPa | 0 mm | - | - | - |
| 1788542417 | 28.89° C | 66% | 1012.7 hPa | 0 mm | - | - | - |
| 1788542117 | 28.89° C | 67% | 1012.7 hPa | 0 mm | - | - | - |
| 1788541817 | 28.89° C | 67% | 1012.7 hPa | 0 mm | - | - | - |
| 1788541517 | 28.33° C | 68% | 1012.8 hPa | 0 mm | - | - | - |
| 1788541217 | 28.33° C | 68% | 1012.7 hPa | 0 mm | - | - | - |
| 1788540917 | 28.89° C | 67% | 1012.7 hPa | 0 mm | - | - | - |
| 1788540617 | 28.89° C | 68% | 1012.8 hPa | 0 mm | - | - | - |
| 1788540317 | 28.89° C | 66% | 1012.9 hPa | 0 mm | - | - | - |
| 1788540017 | 28.89° C | 67% | 1012.8 hPa | 0 mm | - | - | - |
| 1788539717 | 28.89° C | 67% | 1012.8 hPa | 0 mm | - | - | - |
| 1788539417 | 28.89° C | 68% | 1012.7 hPa | 0 mm | - | - | - |
| 1788539117 | 28.89° C | 67% | 1012.8 hPa | 0 mm | - | - | - |
| 1788538817 | 28.89° C | 66% | 1012.7 hPa | 0 mm | - | - | - |
| 1788538517 | 28.89° C | 67% | 1012.8 hPa | 0 mm | - | - | - |
| 1788538235 | 28.89° C | 67% | 1012.7 hPa | 0 mm | - | - | - |
| 1788537917 | 28.89° C | 66% | 1012.9 hPa | 0 mm | - | - | - |
* Rain latest hour (hover to see other rain measurements)
** Current wind speed in m/s (hover to see current wind gust speed)